,,,PA_Meas_PMT16A,,PR_Meas_QMR101_102,,RH_Meas_QMH101,,SR_Meas_QMS101,,TA_Meas_QMH101,,GenWind,,GenWind,
date,time,status,PA,status,PR,status,RH,status,SR,status,TA,status,DirAvg,status,SpdAvg,
2011-02-24, 00:00:05,VALID,1009.69,VALID,0,VALID,104,VALID,0.105969,VALID,24.5106,VALID,239,VALID,0,
2011-02-24, 00:01:05,VALID,1009.69,VALID,0,VALID,104,VALID,0,VALID,24.532,VALID,239,VALID,0,
2011-02-24, 00:02:05,VALID,1009.68,VALID,0,VALID,104,VALID,0,VALID,24.5515,VALID,239,VALID,0,
2011-02-24, 00:03:05,VALID,1009.69,VALID,0,VALID,104,VALID,0,VALID,24.5515,VALID,239,VALID,0,
2011-02-24, 00:04:05,VALID,1009.66,VALID,0,VALID,104,VALID,0,VALID,24.5515,VALID,239,VALID,0,
2011-02-24, 00:05:05,VALID,1009.62,VALID,0,VALID,104,VALID,0,VALID,24.5515,VALID,239,VALID,0,
2011-02-24, 00:06:05,VALID,1009.61,VALID,0,VALID,104,VALID,0,VALID,24.5515,VALID,239,VALID,0,
2011-02-24, 00:07:05,VALID,1009.61,VALID,0,VALID,104,VALID,0,VALID,24.532,VALID,239,VALID,0,
2011-02-24, 00:08:05,VALID,1009.61,VALID,0,VALID,104,VALID,0,VALID,24.5533,VALID,239,VALID,0,
2011-02-24, 00:09:05,VALID,1009.63,VALID,0,VALID,104,VALID,0,VALID,24.532,VALID,239,VALID,0,
2011-02-24, 00:10:05,VALID,1009.62,VALID,0,VALID,104,VALID,0,VALID,24.532,VALID,239,VALID,0,
2011-02-24, 00:11:05,VALID,1009.63,VALID,0,VALID,104,VALID,0,VALID,24.5125,VALID,239,VALID,0,
2011-02-24, 00:12:05,VALID,1009.58,VALID,0,VALID,104,VALID,0,VALID,24.5125,VALID,239,VALID,0,
2011-02-24, 00:13:05,VALID,1009.59,VALID,0,VALID,104,VALID,0,VALID,24.4911,VALID,239,VALID,0,
2011-02-24, 00:14:05,VALID,1009.56,VALID,0,VALID,104,VALID,0,VALID,24.5125,VALID,239,VALID,0,
2011-02-24, 00:15:05,VALID,1009.56,VALID,0,VALID,104,VALID,0,VALID,24.4911,VALID,239,VALID,0,
2011-02-24, 00:16:05,VALID,1009.54,VALID,0,VALID,104,VALID,0,VALID,24.493,VALID,239,VALID,0,
2011-02-24, 00:17:05,VALID,1009.54,VALID,0,VALID,104,VALID,0,VALID,24.4735,VALID,239,VALID,0,
2011-02-24, 00:18:05,VALID,1009.53,VALID,0,VALID,104,VALID,0,VALID,24.493,VALID,239,VALID,0,
2011-02-24, 00:19:05,VALID,1009.51,VALID,0,VALID,104,VALID,0,VALID,24.4735,VALID,239,VALID,0,
2011-02-24, 00:20:05,VALID,1009.53,VALID,0,VALID,104,VALID,0,VALID,24.493,VALID,239,VALID,0,
2011-02-24, 00:21:05,VALID,1009.51,VALID,0,VALID,104,VALID,0,VALID,24.493,VALID,239,VALID,0,
2011-02-24, 00:22:05,VALID,1009.51,VALID,0,VALID,104,VALID,0,VALID,24.493,VALID,239,VALID,0,
2011-02-24, 00:23:05,VALID,1009.46,VALID,0,VALID,104,VALID,0,VALID,24.493,VALID,239,VALID,0,
2011-02-24, 00:24:05,VALID,1009.43,VALID,0,VALID,104,VALID,0,VALID,24.493,VALID,239,VALID,0,
2011-02-24, 00:25:05,VALID,1009.43,VALID,0,VALID,104,VALID,0,VALID,24.454,VALID,239,VALID,0,
2011-02-24, 00:26:05,VALID,1009.42,VALID,0,VALID,104,VALID,0,VALID,24.454,VALID,239,VALID,0,
2011-02-24, 00:27:05,VALID,1009.38,VALID,0,VALID,104,VALID,0,VALID,24.454,VALID,239,VALID,0,
2011-02-24, 00:28:05,VALID,1009.41,VALID,0,VALID,104,VALID,0,VALID,24.415,VALID,239,VALID,0,
2011-02-24, 00:29:05,VALID,1009.41,VALID,0,VALID,104,VALID,0,VALID,24.3956,VALID,239,VALID,0,
2011-02-24, 00:30:05,VALID,1009.42,VALID,0,VALID,104,VALID,0,VALID,24.3761,VALID,239,VALID,0,
2011-02-24, 00:31:05,VALID,1009.41,VALID,0,VALID,104,VALID,0,VALID,24.3761,VALID,239,VALID,0,
2011-02-24, 00:32:05,VALID,1009.42,VALID,0,VALID,104,VALID,0,VALID,24.3584,VALID,239,VALID,0,
2011-02-24, 00:33:05,VALID,1009.41,VALID,0,VALID,104,VALID,0,VALID,24.3371,VALID,239,VALID,0,
2011-02-24, 00:34:05,VALID,1009.45,VALID,0,VALID,104,VALID,0,VALID,24.3371,VALID,239,VALID,0,
2011-02-24, 00:35:05,VALID,1009.41,VALID,0,VALID,104,VALID,0,VALID,24.3371,VALID,239,VALID,0,
2011-02-24, 00:36:05,VALID,1009.39,VALID,0,VALID,104,VALID,0,VALID,24.3176,VALID,239,VALID,0,
2011-02-24, 00:37:05,VALID,1009.38,VALID,0,VALID,104,VALID,0,VALID,24.2981,VALID,239,VALID,0,
2011-02-24, 00:38:05,VALID,1009.36,VALID,0,VALID,104,VALID,0,VALID,24.2786,VALID,239,VALID,0,
2011-02-24, 00:39:05,VALID,1009.34,VALID,0,VALID,104,VALID,0,VALID,24.2786,VALID,239,VALID,0,
2011-02-24, 00:40:05,VALID,1009.34,VALID,0,VALID,104,VALID,0,VALID,24.2786,VALID,239,VALID,0,
2011-02-24, 00:41:05,VALID,1009.32,VALID,0,VALID,104,VALID,0,VALID,24.261,VALID,239,VALID,0,
2011-02-24, 00:42:05,VALID,1009.31,VALID,0,VALID,104,VALID,0,VALID,24.2396,VALID,239,VALID,0,
2011-02-24, 00:43:05,VALID,1009.32,VALID,0,VALID,104,VALID,0,VALID,24.261,VALID,239,VALID,0,
2011-02-24, 00:44:05,VALID,1009.32,VALID,0,VALID,104,VALID,0,VALID,24.2396,VALID,239,VALID,0,
2011-02-24, 00:45:05,VALID,1009.32,VALID,0,VALID,104,VALID,0.105969,VALID,24.2183,VALID,239,VALID,0,
2011-02-24, 00:46:05,VALID,1009.29,VALID,0,VALID,104,VALID,0,VALID,24.2183,VALID,239,VALID,0,
2011-02-24, 00:47:05,VALID,1009.3,VALID,0,VALID,104,VALID,0.105969,VALID,24.2183,VALID,239,VALID,0,
2011-02-24, 00:48:05,VALID,1009.29,VALID,0,VALID,104,VALID,0,VALID,24.2183,VALID,239,VALID,0,
2011-02-24, 00:49:05,VALID,1009.25,VALID,0,VALID,104,VALID,0.105969,VALID,24.2202,VALID,239,VALID,0,
2011-02-24, 00:50:05,VALID,1009.26,VALID,0,VALID,104,VALID,0,VALID,24.1793,VALID,239,VALID,0,
2011-02-24, 00:51:05,VALID,1009.25,VALID,0,VALID,104,VALID,0.105969,VALID,24.1812,VALID,239,VALID,0,
2011-02-24, 00:52:05,VALID,1009.21,VALID,0,VALID,104,VALID,0.105969,VALID,24.1599,VALID,239,VALID,0,
2011-02-24, 00:53:05,VALID,1009.2,VALID,0,VALID,104,VALID,0,VALID,24.1617,VALID,239,VALID,0,
2011-02-24, 00:54:05,VALID,1009.21,VALID,0,VALID,104,VALID,0.105969,VALID,24.1209,VALID,239,VALID,0,
2011-02-24, 00:55:05,VALID,1009.19,VALID,0,VALID,104,VALID,0.105969,VALID,24.1209,VALID,239,VALID,0,
2011-02-24, 00:56:05,VALID,1009.23,VALID,0,VALID,104,VALID,0,VALID,24.1209,VALID,239,VALID,0,
2011-02-24, 00:57:05,VALID,1009.19,VALID,0,VALID,104,VALID,0.105969,VALID,24.0819,VALID,239,VALID,0,
2011-02-24, 00:58:05,VALID,1009.19,VALID,0,VALID,104,VALID,0.105969,VALID,24.0624,VALID,239,VALID,0,
2011-02-24, 00:59:05,VALID,1009.22,VALID,0,VALID,104,VALID,0.105969,VALID,24.0624,VALID,239,VALID,0,
2011-02-24, 01:00:05,VALID,1009.21,VALID,0,VALID,104,VALID,0.105969,VALID,24.0429,VALID,239,VALID,0,
2011-02-24, 01:01:05,VALID,1009.22,VALID,0,VALID,104,VALID,0.105969,VALID,24.0429,VALID,239,VALID,0,
2011-02-24, 01:02:05,VALID,1009.24,VALID,0,VALID,104,VALID,0.105969,VALID,24.0819,VALID,93,VALID,0.424219,
2011-02-24, 01:03:05,VALID,1009.24,VALID,0,VALID,104,VALID,0.105969,VALID,24.1227,VALID,93,VALID,0.383594,
2011-02-24, 01:04:05,VALID,1009.25,VALID,0,VALID,104,VALID,0.105969,VALID,24.1014,VALID,93,VALID,0.419531,
2011-02-24, 01:05:05,VALID,1009.25,VALID,0,VALID,104,VALID,0.105969,VALID,24.0819,VALID,93,VALID,0.335156,
2011-02-24, 01:06:05,VALID,1009.22,VALID,0,VALID,104,VALID,0,VALID,24.1209,VALID,93,VALID,0.345703,
2011-02-24, 01:07:05,VALID,1009.23,VALID,0,VALID,104,VALID,0.105969,VALID,24.1014,VALID,93,VALID,0.423828,
2011-02-24, 01:08:05,VALID,1009.2,VALID,0,VALID,104,VALID,0.105969,VALID,24.1422,VALID,93,VALID,0.0113281,
2011-02-24, 01:09:05,VALID,1009.19,VALID,0,VALID,104,VALID,0.105969,VALID,24.1014,VALID,93,VALID,0.0574219,
2011-02-24, 01:10:05,VALID,1009.18,VALID,0,VALID,104,VALID,0.105969,VALID,24.1014,VALID,93,VALID,0,
2011-02-24, 01:11:05,VALID,1009.18,VALID,0,VALID,104,VALID,0.105969,VALID,24.1209,VALID,93,VALID,0.132422,
2011-02-24, 01:12:05,VALID,1009.17,VALID,0,VALID,104,VALID,0,VALID,24.1014,VALID,93,VALID,0,
2011-02-24, 01:13:05,VALID,1009.15,VALID,0,VALID,104,VALID,0.105969,VALID,24.1014,VALID,93,VALID,0.00429688,
2011-02-24, 01:14:05,VALID,1009.16,VALID,0,VALID,104,VALID,0.105969,VALID,24.0819,VALID,93,VALID,0.000390625,
2011-02-24, 01:15:05,VALID,1009.12,VALID,0,VALID,104,VALID,0,VALID,24.0801,VALID,93,VALID,0.0269531,
2011-02-24, 01:16:05,VALID,1009.11,VALID,0,VALID,104,VALID,0,VALID,24.1014,VALID,93,VALID,0.458203,
2011-02-24, 01:17:05,VALID,1009.1,VALID,0,VALID,104,VALID,0.105969,VALID,24.1209,VALID,93,VALID,0.132422,
2011-02-24, 01:18:05,VALID,1009.08,VALID,0,VALID,104,VALID,0.105969,VALID,24.1014,VALID,93,VALID,0,
2011-02-24, 01:19:05,VALID,1009.09,VALID,0,VALID,104,VALID,0.105969,VALID,24.0819,VALID,93,VALID,0,
2011-02-24, 01:20:05,VALID,1009.06,VALID,0,VALID,104,VALID,0.105969,VALID,24.0819,VALID,93,VALID,0,
2011-02-24, 01:21:05,VALID,1009.07,VALID,0,VALID,104,VALID,0,VALID,24.1032,VALID,93,VALID,0,
2011-02-24, 01:22:05,VALID,1009.04,VALID,0,VALID,104,VALID,0,VALID,24.1032,VALID,93,VALID,0,
2011-02-24, 01:23:05,VALID,1008.99,VALID,0,VALID,104,VALID,0.105969,VALID,24.0819,VALID,93,VALID,0,
2011-02-24, 01:24:05,VALID,1009,VALID,0,VALID,104,VALID,0,VALID,24.1032,VALID,93,VALID,0.15625,
2011-02-24, 01:25:05,VALID,1008.96,VALID,0,VALID,104,VALID,0,VALID,24.0819,VALID,93,VALID,0,
2011-02-24, 01:26:05,VALID,1008.97,VALID,0,VALID,104,VALID,0.105969,VALID,24.0819,VALID,93,VALID,0,
2011-02-24, 01:27:05,VALID,1009.01,VALID,0,VALID,104,VALID,0.105969,VALID,24.0819,VALID,93,VALID,0.0210938,
2011-02-24, 01:28:05,VALID,1008.98,VALID,0,VALID,104,VALID,0.105969,VALID,24.0819,VALID,93,VALID,0,
2011-02-24, 01:29:05,VALID,1008.99,VALID,0,VALID,104,VALID,0,VALID,24.0819,VALID,93,VALID,0.294531,
2011-02-24, 01:30:05,VALID,1008.97,VALID,0,VALID,104,VALID,0.105969,VALID,24.1014,VALID,93,VALID,0,
2011-02-24, 01:31:05,VALID,1008.96,VALID,0,VALID,104,VALID,0.105969,VALID,24.1209,VALID,93,VALID,0,
2011-02-24, 01:32:05,VALID,1008.98,VALID,0,VALID,104,VALID,0.105969,VALID,24.1209,VALID,93,VALID,0.0285156,
2011-02-24, 01:33:05,VALID,1008.97,VALID,0,VALID,104,VALID,0.105969,VALID,24.1209,VALID,93,VALID,0,
2011-02-24, 01:34:05,VALID,1008.97,VALID,0,VALID,104,VALID,0.105969,VALID,24.1014,VALID,93,VALID,0,
2011-02-24, 01:35:05,VALID,1008.97,VALID,0,VALID,104,VALID,0.105969,VALID,24.1014,VALID,93,VALID,0,
2011-02-24, 01:36:05,VALID,1008.95,VALID,0,VALID,104,VALID,0.105969,VALID,24.0801,VALID,93,VALID,0,
2011-02-24, 01:37:05,VALID,1008.99,VALID,0,VALID,104,VALID,0.105969,VALID,24.1014,VALID,93,VALID,0,
2011-02-24, 01:38:05,VALID,1008.97,VALID,0,VALID,104,VALID,0.105969,VALID,24.1014,VALID,93,VALID,0,
2011-02-24, 01:39:05,VALID,1009,VALID,0,VALID,104,VALID,0.105969,VALID,24.0801,VALID,93,VALID,0,
2011-02-24, 01:40:05,VALID,1008.96,VALID,0,VALID,104,VALID,0.211938,VALID,24.0819,VALID,93,VALID,0,
2011-02-24, 01:41:05,VALID,1008.94,VALID,0,VALID,104,VALID,0.105969,VALID,24.0819,VALID,93,VALID,0,
2011-02-24, 01:42:05,VALID,1008.98,VALID,0,VALID,104,VALID,0.105969,VALID,24.0429,VALID,93,VALID,0,
2011-02-24, 01:43:05,VALID,1008.94,VALID,0,VALID,104,VALID,0.105969,VALID,24.0429,VALID,93,VALID,0,
2011-02-24, 01:44:05,VALID,1008.94,VALID,0,VALID,104,VALID,0.105969,VALID,24.0429,VALID,93,VALID,0,
2011-02-24, 01:45:05,VALID,1008.9,VALID,0,VALID,104,VALID,0.105969,VALID,24.0235,VALID,93,VALID,0,
2011-02-24, 01:46:05,VALID,1008.88,VALID,0,VALID,104,VALID,0.105969,VALID,24.0429,VALID,93,VALID,0,
2011-02-24, 01:47:05,VALID,1008.85,VALID,0,VALID,104,VALID,0.105969,VALID,24.0429,VALID,93,VALID,0.0769531,
2011-02-24, 01:48:05,VALID,1008.82,VALID,0,VALID,104,VALID,0.105969,VALID,24.0624,VALID,93,VALID,0,
2011-02-24, 01:49:05,VALID,1008.83,VALID,0,VALID,104,VALID,0.105969,VALID,24.0411,VALID,93,VALID,0,
2011-02-24, 01:50:05,VALID,1008.8,VALID,0,VALID,104,VALID,0.105969,VALID,24.0429,VALID,93,VALID,0,
2011-02-24, 01:51:05,VALID,1008.82,VALID,0,VALID,104,VALID,0.105969,VALID,24.0429,VALID,93,VALID,0,
2011-02-24, 01:52:05,VALID,1008.8,VALID,0,VALID,104,VALID,0.105969,VALID,24.0624,VALID,93,VALID,0,
2011-02-24, 01:53:05,VALID,1008.8,VALID,0,VALID,104,VALID,0.105969,VALID,24.0411,VALID,93,VALID,0,
2011-02-24, 01:54:05,VALID,1008.81,VALID,0,VALID,104,VALID,0.105969,VALID,24.0819,VALID,93,VALID,0,
2011-02-24, 01:55:05,VALID,1008.8,VALID,0,VALID,104,VALID,0.105969,VALID,24.0819,VALID,93,VALID,0,
2011-02-24, 01:56:05,VALID,1008.81,VALID,0,VALID,104,VALID,0.105969,VALID,24.1014,VALID,93,VALID,0,
2011-02-24, 01:57:05,VALID,1008.77,VALID,0,VALID,104,VALID,0.105969,VALID,24.1209,VALID,93,VALID,0,
2011-02-24, 01:58:05,VALID,1008.79,VALID,0,VALID,104,VALID,0.105969,VALID,24.1209,VALID,93,VALID,0,
2011-02-24, 01:59:05,VALID,1008.74,VALID,0,VALID,104,VALID,0.105969,VALID,24.1209,VALID,93,VALID,0,
2011-02-24, 02:00:05,VALID,1008.76,VALID,0,VALID,104,VALID,0.105969,VALID,24.1209,VALID,93,VALID,0,
2011-02-24, 02:01:05,VALID,1008.76,VALID,0,VALID,104,VALID,0.105969,VALID,24.1014,VALID,93,VALID,0,
2011-02-24, 02:02:05,VALID,1008.79,VALID,0,VALID,104,VALID,0.105969,VALID,24.1014,VALID,93,VALID,0,
2011-02-24, 02:03:05,VALID,1008.8,VALID,0,VALID,104,VALID,0.105969,VALID,24.1209,VALID,93,VALID,0,
2011-02-24, 02:04:05,VALID,1008.81,VALID,0,VALID,104,VALID,0.105969,VALID,24.1014,VALID,93,VALID,0,
2011-02-24, 02:05:05,VALID,1008.8,VALID,0,VALID,104,VALID,0.105969,VALID,24.0801,VALID,93,VALID,0,
2011-02-24, 02:06:05,VALID,1008.8,VALID,0,VALID,104,VALID,0.105969,VALID,24.0801,VALID,93,VALID,0,
2011-02-24, 02:07:05,VALID,1008.81,VALID,0,VALID,104,VALID,0.105969,VALID,24.0819,VALID,93,VALID,0,
2011-02-24, 02:08:05,VALID,1008.79,VALID,0,VALID,104,VALID,0.105969,VALID,24.0624,VALID,93,VALID,0,
2011-02-24, 02:09:05,VALID,1008.82,VALID,0,VALID,104,VALID,0.105969,VALID,24.0429,VALID,93,VALID,0,
2011-02-24, 02:10:05,VALID,1008.82,VALID,0,VALID,104,VALID,0.105969,VALID,24.0235,VALID,93,VALID,0,
2011-02-24, 02:11:05,VALID,1008.83,VALID,0,VALID,104,VALID,0.105969,VALID,24.004,VALID,93,VALID,0,
2011-02-24, 02:12:05,VALID,1008.84,VALID,0,VALID,104,VALID,0.105969,VALID,24.004,VALID,93,VALID,0,
2011-02-24, 02:13:05,VALID,1008.84,VALID,0,VALID,104,VALID,0.105969,VALID,24.004,VALID,93,VALID,0,
2011-02-24, 02:14:05,VALID,1008.83,VALID,0,VALID,104,VALID,0.105969,VALID,23.9845,VALID,93,VALID,0,
2011-02-24, 02:15:05,VALID,1008.85,VALID,0,VALID,104,VALID,0,VALID,23.9668,VALID,93,VALID,0,
2011-02-24, 02:16:05,VALID,1008.86,VALID,0,VALID,104,VALID,0,VALID,23.9668,VALID,93,VALID,0,
2011-02-24, 02:17:05,VALID,1008.87,VALID,0,VALID,104,VALID,0,VALID,23.9473,VALID,93,VALID,0,
2011-02-24, 02:18:05,VALID,1008.86,VALID,0,VALID,104,VALID,0,VALID,23.9668,VALID,93,VALID,0,
2011-02-24, 02:19:05,VALID,1008.83,VALID,0,VALID,104,VALID,0,VALID,23.9668,VALID,93,VALID,0,
2011-02-24, 02:20:05,VALID,1008.79,VALID,0,VALID,104,VALID,0,VALID,23.9668,VALID,93,VALID,0,
2011-02-24, 02:21:05,VALID,1008.81,VALID,0,VALID,104,VALID,0,VALID,23.9863,VALID,93,VALID,0,
2011-02-24, 02:22:04,VALID,1008.77,VALID,0,VALID,104,VALID,0,VALID,24.0058,VALID,93,VALID,0,
2011-02-24, 02:23:04,VALID,1008.71,VALID,0,VALID,104,VALID,0,VALID,24.0058,VALID,93,VALID,0,
2011-02-24, 02:24:04,VALID,1008.73,VALID,0,VALID,104,VALID,0,VALID,23.9863,VALID,93,VALID,0,
2011-02-24, 02:25:04,VALID,1008.71,VALID,0,VALID,104,VALID,0,VALID,23.9863,VALID,93,VALID,0,
2011-02-24, 02:26:04,VALID,1008.69,VALID,0,VALID,104,VALID,0,VALID,23.9863,VALID,93,VALID,0,
2011-02-24, 02:27:04,VALID,1008.65,VALID,0,VALID,104,VALID,0,VALID,24.0058,VALID,93,VALID,0.264062,
2011-02-24, 02:28:04,VALID,1008.66,VALID,0,VALID,104,VALID,0,VALID,23.9863,VALID,93,VALID,0.385156,
2011-02-24, 02:29:04,VALID,1008.61,VALID,0,VALID,104,VALID,0,VALID,24.0058,VALID,93,VALID,0.567187,
2011-02-24, 02:30:04,VALID,1008.59,VALID,0,VALID,104,VALID,0,VALID,24.0058,VALID,93,VALID,0.605469,
2011-02-24, 02:31:04,VALID,1008.57,VALID,0,VALID,104,VALID,0,VALID,24.0058,VALID,93,VALID,0.394531,
2011-02-24, 02:32:04,VALID,1008.54,VALID,0,VALID,104,VALID,0,VALID,23.9863,VALID,93,VALID,0.629687,
2011-02-24, 02:33:04,VALID,1008.55,VALID,0,VALID,104,VALID,0,VALID,23.9863,VALID,93,VALID,0.625781,
2011-02-24, 02:34:04,VALID,1008.55,VALID,0,VALID,104,VALID,0,VALID,23.9668,VALID,93,VALID,0.755859,
2011-02-24, 02:35:04,VALID,1008.53,VALID,0,VALID,104,VALID,0,VALID,23.9668,VALID,93,VALID,0.947656,
2011-02-24, 02:36:04,VALID,1008.55,VALID,0,VALID,104,VALID,0,VALID,23.9668,VALID,93,VALID,0.782812,
2011-02-24, 02:37:04,VALID,1008.54,VALID,0,VALID,104,VALID,0,VALID,23.9473,VALID,93,VALID,0.663672,
2011-02-24, 02:38:04,VALID,1008.53,VALID,0,VALID,104,VALID,0,VALID,23.9473,VALID,93,VALID,0.531641,
2011-02-24, 02:39:04,VALID,1008.53,VALID,0,VALID,104,VALID,0,VALID,23.9278,VALID,93,VALID,0.501172,
2011-02-24, 02:40:04,VALID,1008.5,VALID,0,VALID,104,VALID,0,VALID,23.9278,VALID,90,VALID,0.506641,
2011-02-24, 02:41:04,VALID,1008.49,VALID,0,VALID,104,VALID,0,VALID,23.8871,VALID,77,VALID,0.773047,
2011-02-24, 02:42:04,VALID,1008.45,VALID,0,VALID,104,VALID,0,VALID,23.9084,VALID,62,VALID,1.24531,
2011-02-24, 02:43:04,VALID,1008.44,VALID,0,VALID,104,VALID,0,VALID,23.9084,VALID,75,VALID,0.876953,
2011-02-24, 02:44:04,VALID,1008.4,VALID,0,VALID,104,VALID,0,VALID,23.8889,VALID,78,VALID,0.45625,
2011-02-24, 02:45:04,VALID,1008.38,VALID,0,VALID,104,VALID,0.105969,VALID,23.8889,VALID,78,VALID,0.222266,
2011-02-24, 02:46:04,VALID,1008.36,VALID,0,VALID,104,VALID,0.105969,VALID,23.8481,VALID,78,VALID,0.188281,
2011-02-24, 02:47:04,VALID,1008.33,VALID,0,VALID,104,VALID,0,VALID,23.8286,VALID,78,VALID,0.229297,
2011-02-24, 02:48:04,VALID,1008.37,VALID,0,VALID,104,VALID,0.105969,VALID,23.8286,VALID,78,VALID,0.009375,
2011-02-24, 02:49:04,VALID,1008.36,VALID,0,VALID,104,VALID,0,VALID,23.8286,VALID,70,VALID,0.295312,
2011-02-24, 02:50:04,VALID,1008.37,VALID,0,VALID,104,VALID,0.105969,VALID,23.8286,VALID,70,VALID,0,
2011-02-24, 02:51:04,VALID,1008.37,VALID,0,VALID,104,VALID,0.105969,VALID,23.8286,VALID,70,VALID,0,
2011-02-24, 02:52:04,VALID,1008.38,VALID,0,VALID,104,VALID,0.105969,VALID,23.8286,VALID,70,VALID,0,
2011-02-24, 02:53:04,VALID,1008.36,VALID,0,VALID,104,VALID,0.211938,VALID,23.8286,VALID,70,VALID,0,
2011-02-24, 02:54:04,VALID,1008.34,VALID,0,VALID,104,VALID,0.105969,VALID,23.8286,VALID,70,VALID,0,
2011-02-24, 02:55:04,VALID,1008.36,VALID,0,VALID,104,VALID,0.105969,VALID,23.8091,VALID,70,VALID,0,
2011-02-24, 02:56:04,VALID,1008.35,VALID,0,VALID,104,VALID,0.105969,VALID,23.8091,VALID,70,VALID,0,
2011-02-24, 02:57:04,VALID,1008.36,VALID,0,VALID,104,VALID,0,VALID,23.8091,VALID,70,VALID,0,
2011-02-24, 02:58:04,VALID,1008.32,VALID,0,VALID,104,VALID,0.105969,VALID,23.8109,VALID,70,VALID,0,
2011-02-24, 02:59:04,VALID,1008.33,VALID,0,VALID,104,VALID,0,VALID,23.8091,VALID,70,VALID,0,
2011-02-24, 03:00:04,VALID,1008.3,VALID,0,VALID,104,VALID,0.105969,VALID,23.8091,VALID,70,VALID,0,
2011-02-24, 03:01:04,VALID,1008.3,VALID,0,VALID,104,VALID,0.105969,VALID,23.7896,VALID,70,VALID,0,
2011-02-24, 03:02:04,VALID,1008.27,VALID,0,VALID,104,VALID,0.105969,VALID,23.7701,VALID,70,VALID,0.267969,
2011-02-24, 03:03:04,VALID,1008.28,VALID,0,VALID,104,VALID,0.105969,VALID,23.7701,VALID,70,VALID,0.243359,
2011-02-24, 03:04:04,VALID,1008.25,VALID,0,VALID,104,VALID,0,VALID,23.7507,VALID,70,VALID,0.229687,
2011-02-24, 03:05:04,VALID,1008.27,VALID,0,VALID,104,VALID,0.105969,VALID,23.7507,VALID,70,VALID,0.196875,
2011-02-24, 03:06:04,VALID,1008.24,VALID,0,VALID,104,VALID,0.105969,VALID,23.7525,VALID,70,VALID,0,
2011-02-24, 03:07:04,VALID,1008.28,VALID,0,VALID,104,VALID,0.105969,VALID,23.7117,VALID,70,VALID,0,
2011-02-24, 03:08:04,VALID,1008.31,VALID,0,VALID,104,VALID,0.105969,VALID,23.6922,VALID,70,VALID,0,
2011-02-24, 03:09:04,VALID,1008.29,VALID,0,VALID,104,VALID,0.105969,VALID,23.6922,VALID,70,VALID,0,
2011-02-24, 03:10:04,VALID,1008.32,VALID,0,VALID,104,VALID,0.105969,VALID,23.6727,VALID,70,VALID,0,
2011-02-24, 03:11:04,VALID,1008.3,VALID,0,VALID,104,VALID,0,VALID,23.6727,VALID,70,VALID,0,
2011-02-24, 03:12:04,VALID,1008.26,VALID,0,VALID,104,VALID,0.105969,VALID,23.6727,VALID,70,VALID,0,
2011-02-24, 03:13:04,VALID,1008.28,VALID,0,VALID,104,VALID,0,VALID,23.6727,VALID,70,VALID,0,
2011-02-24, 03:14:04,VALID,1008.3,VALID,0,VALID,104,VALID,0,VALID,23.6338,VALID,70,VALID,0,
2011-02-24, 03:15:04,VALID,1008.3,VALID,0,VALID,104,VALID,0,VALID,23.6338,VALID,70,VALID,0,
2011-02-24, 03:16:04,VALID,1008.28,VALID,0,VALID,104,VALID,0.105969,VALID,23.6356,VALID,70,VALID,0,
2011-02-24, 03:17:04,VALID,1008.28,VALID,0,VALID,104,VALID,0,VALID,23.6143,VALID,70,VALID,0,
2011-02-24, 03:18:04,VALID,1008.29,VALID,0,VALID,104,VALID,0.105969,VALID,23.6143,VALID,70,VALID,0.180859,
2011-02-24, 03:19:04,VALID,1008.32,VALID,0,VALID,104,VALID,0.105969,VALID,23.6143,VALID,70,VALID,0,
2011-02-24, 03:20:04,VALID,1008.31,VALID,0,VALID,104,VALID,0.105969,VALID,23.6161,VALID,70,VALID,0,
2011-02-24, 03:21:04,VALID,1008.35,VALID,0,VALID,104,VALID,0.105969,VALID,23.5558,VALID,70,VALID,0,
2011-02-24, 03:22:04,VALID,1008.36,VALID,0,VALID,104,VALID,0.105969,VALID,23.5169,VALID,70,VALID,0,
2011-02-24, 03:23:04,VALID,1008.44,VALID,0,VALID,104,VALID,0.105969,VALID,23.5381,VALID,70,VALID,0,
2011-02-24, 03:24:04,VALID,1008.47,VALID,0,VALID,104,VALID,0.105969,VALID,23.5381,VALID,70,VALID,0,
2011-02-24, 03:25:04,VALID,1008.5,VALID,0,VALID,104,VALID,0.105969,VALID,23.4974,VALID,70,VALID,0,
2011-02-24, 03:26:04,VALID,1008.5,VALID,0,VALID,104,VALID,0.105969,VALID,23.4779,VALID,70,VALID,0,
2011-02-24, 03:27:04,VALID,1008.52,VALID,0,VALID,104,VALID,0.105969,VALID,23.4974,VALID,70,VALID,0,
2011-02-24, 03:28:04,VALID,1008.52,VALID,0,VALID,104,VALID,0.105969,VALID,23.4974,VALID,70,VALID,0,
2011-02-24, 03:29:04,VALID,1008.55,VALID,0,VALID,104,VALID,0.105969,VALID,23.5169,VALID,70,VALID,0,
2011-02-24, 03:30:04,VALID,1008.57,VALID,0,VALID,104,VALID,0.105969,VALID,23.4779,VALID,70,VALID,0,
2011-02-24, 03:31:04,VALID,1008.61,VALID,0,VALID,104,VALID,0.105969,VALID,23.4584,VALID,70,VALID,0,
2011-02-24, 03:32:04,VALID,1008.64,VALID,0,VALID,104,VALID,0.105969,VALID,23.4194,VALID,70,VALID,0,
2011-02-24, 03:33:04,VALID,1008.65,VALID,0,VALID,104,VALID,0.105969,VALID,23.4,VALID,70,VALID,0,
2011-02-24, 03:34:04,VALID,1008.63,VALID,0,VALID,104,VALID,0.105969,VALID,23.4,VALID,70,VALID,0,
2011-02-24, 03:35:04,VALID,1008.65,VALID,0,VALID,104,VALID,0.105969,VALID,23.3805,VALID,70,VALID,0,
2011-02-24, 03:36:04,VALID,1008.61,VALID,0,VALID,104,VALID,0.105969,VALID,23.361,VALID,70,VALID,0,
2011-02-24, 03:37:04,VALID,1008.6,VALID,0,VALID,104,VALID,0,VALID,23.3823,VALID,70,VALID,0,
2011-02-24, 03:38:04,VALID,1008.61,VALID,0,VALID,104,VALID,0,VALID,23.3823,VALID,70,VALID,0,
2011-02-24, 03:39:04,VALID,1008.6,VALID,0,VALID,104,VALID,0,VALID,23.3628,VALID,70,VALID,0,
2011-02-24, 03:40:04,VALID,1008.58,VALID,0,VALID,104,VALID,0,VALID,23.3433,VALID,70,VALID,0,
2011-02-24, 03:41:04,VALID,1008.59,VALID,0,VALID,104,VALID,0,VALID,23.3433,VALID,70,VALID,0,
2011-02-24, 03:42:04,VALID,1008.58,VALID,0,VALID,104,VALID,0,VALID,23.3628,VALID,70,VALID,0,
2011-02-24, 03:43:04,VALID,1008.58,VALID,0,VALID,104,VALID,0,VALID,23.3238,VALID,70,VALID,0,
2011-02-24, 03:44:04,VALID,1008.58,VALID,0,VALID,104,VALID,0,VALID,23.3043,VALID,70,VALID,0,
2011-02-24, 03:45:04,VALID,1008.58,VALID,0,VALID,104,VALID,0.105969,VALID,23.2831,VALID,70,VALID,0,
2011-02-24, 03:46:04,VALID,1008.59,VALID,0,VALID,104,VALID,0.105969,VALID,23.2423,VALID,70,VALID,0,
2011-02-24, 03:47:04,VALID,1008.59,VALID,0,VALID,104,VALID,0.105969,VALID,23.2636,VALID,70,VALID,0,
2011-02-24, 03:48:04,VALID,1008.62,VALID,0,VALID,104,VALID,0.105969,VALID,23.2636,VALID,70,VALID,0,
2011-02-24, 03:49:04,VALID,1008.59,VALID,0,VALID,104,VALID,0.105969,VALID,23.2636,VALID,70,VALID,0,
2011-02-24, 03:50:04,VALID,1008.57,VALID,0,VALID,104,VALID,0.105969,VALID,23.2636,VALID,70,VALID,0,
2011-02-24, 03:51:04,VALID,1008.54,VALID,0,VALID,104,VALID,0.105969,VALID,23.2831,VALID,70,VALID,0,
2011-02-24, 03:52:04,VALID,1008.56,VALID,0,VALID,104,VALID,0.105969,VALID,23.3026,VALID,70,VALID,0,
2011-02-24, 03:53:04,VALID,1008.57,VALID,0,VALID,104,VALID,0.105969,VALID,23.322,VALID,70,VALID,0,
2011-02-24, 03:54:04,VALID,1008.61,VALID,0,VALID,104,VALID,0.105969,VALID,23.3415,VALID,70,VALID,0,
2011-02-24, 03:55:04,VALID,1008.65,VALID,0,VALID,104,VALID,0.105969,VALID,23.3415,VALID,70,VALID,0,
2011-02-24, 03:56:04,VALID,1008.66,VALID,0,VALID,104,VALID,0.105969,VALID,23.361,VALID,70,VALID,0,
2011-02-24, 03:57:04,VALID,1008.67,VALID,0,VALID,104,VALID,0.105969,VALID,23.3592,VALID,70,VALID,0,
2011-02-24, 03:58:04,VALID,1008.71,VALID,0,VALID,104,VALID,0.105969,VALID,23.3398,VALID,70,VALID,0,